sat.trackr.live / text

‹ back to catalog

STARLINK-5675

NORAD 55340 · 2023-013K

PAYLOAD ACTIVE UNKNOWN

§ Identity

Operator
Country
US
Launch date
2023-01-26
Launch site
AFETR
Launch vehicle
Mass (kg)
RCS (m²)

Purposes: comms

External: N2YO · Heavens-Above · Gunter

§ Orbital elements

Epoch: 2026-09-20T12:35:25.579968Z

Period
94.27 min
Inclination
43.0041°
Eccentricity
0.0001767
Mean motion
15.27577649 rev/d
Perigee alt
481.8 km
Apogee alt
484.3 km
Semi-major
6,861.2 km
B*
2.6477e-5
RAAN
282.8525°
Arg perigee
278.1572°
Mean anomaly
81.9079°
Rev number
20,147

§ Raw data

STARLINK-56751 55340U 23013K   26263.52460162  .00000466  00000+0  26477-4 0  99962 55340  43.0041 282.8525 0001767 278.1572  81.9079 15.27577649201477

JSON: /api/v1/satellites/55340 · /tle

For live sub-satellite position, see the globe view (requires WebGL).

§ Visibility from observer

Set your observer location to see the next 7 days of passes ≥ 10°. The values pass through the URL so the page stays shareable.

No JS? Fill the form by hand. The geolocation button needs JavaScript.